RADFXSAT (FOX-1B) (43017 NORAD) Tracking and Keplerian Element Data

This shows tracking and keplerian element data for the satellite.

Feedback or suggestion? Click here.




ElementValue
Catalog43017
NameRADFXSAT (FOX-1B)
Epoch Orbit27025
Epoch Day324.68215294
Epoch Year2022
RAAN212.418
Inclination97.6545
Eccentricity0.0245602
Argument of Perigee36.012
Mean Anonmoly325.7364
Mean Motion14.82629732
Decay Rate4.621E-05
L11 43017U 17073E 22324.68215294 .00004621 00000+0 34143-3 0 9993
L22 43017 97.6545 212.4180 0245602 36.0120 325.7364 14.82629732270252



Live tracking and technical data element details for RADFXSAT (FOX-1B) (NORAD 43017). RADFXSAT (FOX-1B) can be tracked NOW for your location showing map with azimuth and elevation plus other details from your city location.







IsCatalogInMostPopularTable: catalog: 43017, numindb: 1077
Update: records affected: 1



GetName: 43017 RADFXSAT (FOX-1B)

Hit Count: updated at: Mon, 28 Nov 2022 04:10:53 GMT